Change the Weather History Date:

Thursday, March 7, 2013

  Actual Average Record
Temperature  
Mean Temperature 16 °F -  
Max Temperature 26 °F 21 °F 44 °F (2006)
Min Temperature 5 °F 4 °F -20 °F (2008)
Degree Days  
Heating Degree Days 50    
Moisture  
Dew Point 10 °F    
Average Humidity 86    
Maximum Humidity 93    
Minimum Humidity 80    
Precipitation  
Precipitation 0.00 in - - ()
Snow  
Snow 0.00 in - - ()
Snow Depth 16.00 in    
Sea Level Pressure  
Sea Level Pressure 30.16 in    
Wind  
Wind Speed 14 mph (SSE)    
Max Wind Speed 20 mph    
Max Gust Speed -    
Visibility 10 miles    
Events      
Averages and records for this station are not official NWS values.
T = Trace of Precipitation, MM = Missing Value Source: NWS Daily Summary

Daily Weather History Graph

Daily Weather History Graph

Search for Another Location

Airport or City:

Trip Planner

Search our weather history database for the weather conditions in past years. The results will help you decide how hot, cold, wet, or windy it might be!

Date:

Astronomy

Mar. 07, 2013 Rise Set
Actual Time 7:14 AM CST 6:39 PM CST
Civil Twilight 6:43 AM CST 7:10 PM CST
Nautical Twilight 6:06 AM CST 7:46 PM CST
Astronomical Twilight 5:30 AM CST 8:23 PM CST
Moon 4:33 AM CST (3/7) 2:13 PM CST (3/7)
Length of Visible Light 12h 27m
Length of Day
11h 24m
Waning Crescent, 20% of the Moon is Illuminated
Mar 7
Waning Crescent
Mar 11
New
Mar 19
First Quarter
Mar 27
Full
Apr 2
Last Quarter

Hourly Weather History & Observations

Time (CST) Temp. Windchill Dew Point Humidity Pressure Visibility Wind Dir Wind Speed Gust Speed Precip Events Conditions
12:23 AM 10.4 °F -7.2 °F 6.8 °F 85% 30.21 in 10.0 mi SE 17.3 mph - N/A   Partly Cloudy
12:36 AM 10.4 °F -8.2 °F 6.8 °F 85% 30.21 in 10.0 mi SE 19.6 mph - N/A   Partly Cloudy
12:55 AM 10.2 °F -7.9 °F 7.2 °F 87% 30.21 in 10.0 mi SE 18.4 mph - N/A   Partly Cloudy
2:04 AM 10.4 °F -7.7 °F 6.8 °F 85% 30.19 in 10.0 mi ESE 18.4 mph - N/A   Mostly Cloudy
2:39 AM 10.4 °F -6.6 °F 6.8 °F 85% 30.19 in 10.0 mi SE 16.1 mph - N/A   Overcast
2:48 AM 10.4 °F -7.2 °F 6.8 °F 85% 30.19 in 10.0 mi SE 17.3 mph - N/A   Overcast
2:54 AM 10.4 °F -7.2 °F 6.8 °F 85% 30.18 in 10.0 mi SE 17.3 mph - N/A   Overcast
2:55 AM 9.9 °F -7.9 °F 6.8 °F 87% 30.18 in 10.0 mi SE 17.3 mph - N/A   Overcast
3:00 AM 10.4 °F -6.0 °F 6.8 °F 85% 30.17 in 10.0 mi ESE 15.0 mph - N/A   Overcast
3:22 AM 10.4 °F -4.8 °F 6.8 °F 85% 30.17 in 10.0 mi SE 12.7 mph - N/A   Overcast
3:33 AM 10.4 °F -6.0 °F 6.8 °F 85% 30.17 in 10.0 mi ESE 15.0 mph - N/A   Overcast
3:37 AM 8.6 °F -7.7 °F 6.8 °F 92% 30.17 in 10.0 mi ESE 13.8 mph - N/A   Overcast
3:42 AM 8.6 °F -7.7 °F 6.8 °F 92% 30.16 in 10.0 mi ESE 13.8 mph - N/A   Overcast
3:55 AM 9.9 °F -6.7 °F 6.6 °F 87% 30.15 in 10.0 mi ESE 15.0 mph - N/A   Overcast
4:55 AM 10.6 °F -6.4 °F 7.5 °F 87% 30.14 in 10.0 mi ESE 16.1 mph - N/A   Overcast
5:16 AM 10.4 °F -5.4 °F 6.8 °F 85% 30.14 in 10.0 mi ESE 13.8 mph - N/A   Overcast
5:40 AM 10.4 °F -4.8 °F 6.8 °F 85% 30.15 in 10.0 mi ESE 12.7 mph - N/A   Overcast
5:55 AM 9.0 °F -6.6 °F 5.9 °F 87% 30.15 in 10.0 mi ESE 12.7 mph - N/A   Overcast
6:27 AM 6.8 °F -10.0 °F 3.2 °F 85% 30.14 in 10.0 mi ESE 13.8 mph - N/A   Overcast
6:55 AM 5.9 °F -10.5 °F 2.8 °F 87% 30.16 in 10.0 mi ESE 12.7 mph - N/A   Overcast
7:00 AM 6.8 °F -9.3 °F 3.2 °F 85% 30.16 in 10.0 mi ESE 12.7 mph - N/A   Overcast
7:20 AM 5.0 °F -10.0 °F 3.2 °F 92% 30.15 in 10.0 mi ESE 10.4 mph - N/A   Overcast
8:19 AM 5.0 °F -11.6 °F 1.4 °F 85% 30.16 in 7.0 mi SE 12.7 mph - N/A   Overcast
8:55 AM 7.2 °F -5.4 °F 3.9 °F 87% 30.15 in 10.0 mi SE 8.1 mph - N/A   Mostly Cloudy
8:56 AM 6.8 °F -5.9 °F 3.2 °F 85% 30.15 in 10.0 mi SE 8.1 mph - N/A   Mostly Cloudy
9:36 AM 10.4 °F -1.5 °F 6.8 °F 85% 30.15 in 10.0 mi SSE 8.1 mph - N/A   Overcast
9:46 AM 10.4 °F -0.4 °F 6.8 °F 85% 30.17 in 10.0 mi SSE 6.9 mph - N/A   Overcast
9:55 AM 11.1 °F -1.6 °F 7.5 °F 85% 30.16 in 10.0 mi SSE 9.2 mph - N/A   Overcast
10:55 AM 13.8 °F 2.7 °F 9.9 °F 84% 30.16 in 10.0 mi SE 8.1 mph - N/A   Overcast
11:55 AM 19.0 °F 6.8 °F 14.9 °F 84% 30.13 in 10.0 mi SE 11.5 mph - N/A   Overcast
12:55 PM 22.1 °F 10.6 °F 18.0 °F 84% 30.12 in 10.0 mi SSE 11.5 mph - N/A   Overcast
1:55 PM 23.2 °F 12.0 °F 18.7 °F 83% 30.12 in 10.0 mi South 11.5 mph - N/A   Overcast
2:55 PM 24.3 °F 13.9 °F 19.9 °F 84% 30.12 in 8.0 mi South 10.4 mph - N/A   Overcast
3:26 PM 24.8 °F 15.3 °F 19.4 °F 80% 30.13 in 7.0 mi South 9.2 mph - N/A   Overcast
3:55 PM 25.3 °F 16.7 °F 20.8 °F 83% 30.13 in 8.0 mi SSW 8.1 mph - N/A   Overcast
4:55 PM 26.4 °F 20.9 °F 21.6 °F 82% 30.13 in 9.0 mi SSW 4.6 mph - N/A   Overcast
5:55 PM 26.6 °F 21.2 °F 21.9 °F 82% 30.14 in 10.0 mi SSW 4.6 mph - N/A   Overcast
6:55 PM 26.1 °F 20.5 °F 22.3 °F 86% 30.15 in 10.0 mi South 4.6 mph - N/A   Overcast
7:55 PM 25.0 °F 19.3 °F 22.5 °F 90% 30.16 in 10.0 mi South 4.6 mph - N/A   Overcast
8:38 PM 24.8 °F 17.9 °F 21.2 °F 86% 30.16 in 10.0 mi SW 5.8 mph - N/A   Scattered Clouds
8:55 PM 22.1 °F 12.0 °F 18.9 °F 87% 30.17 in 10.0 mi WSW 9.2 mph - N/A   Clear
9:55 PM 17.6 °F 5.7 °F 14.7 °F 88% 30.19 in 10.0 mi West 10.4 mph - N/A   Clear
10:55 PM 16.9 °F 4.1 °F 13.8 °F 88% 30.20 in 10.0 mi West 11.5 mph - N/A   Clear
11:55 PM 20.1 °F 9.5 °F 18.5 °F 93% 30.26 in 10.0 mi West 9.2 mph - N/A   Overcast